Regional Weather Roundup
Issued by NWS

Home | Current Version | Previous Version | Text Only | Print | Product List | Glossary On
Versions: 1 2 3 4 5 6 7 8 9 10 11 12 13 14 15 16 17 18 19 20 21 22 23 24 25 26 27 28 29 30 31 32 33 34 35 36 37 38 39 40 41 42 43 44 45 46 47 48 49 50
000
ASUS46 KLOX 010413
RWRCA

SOUTHERN CALIFORNIA WEATHER ROUNDUP
NATIONAL WEATHER SERVICE OXNARD CALIFORNIA
900 PM PDT MON AUG 31 2015

NOTE: "FAIR" INDICATES FEW OR NO CLOUDS BELOW 12,000 FEET WITH NO
SIGNIFICANT WEATHER AND/OR OBSTRUCTIONS TO VISIBILITY.

  -  STATIONS PRECEEDED BY AN ASTERISK (*) ARE NOT NWS OR FAA
     STATIONS AND ARE NOT SUBJECT TO NWS AND FAA QUALITY CONTROL.

CAZ041-042-087-010500-
LA AND ORANGE COUNTY COASTAL AREAS


CITY           SKY/WX    TMP DP  RH WIND       PRES   REMARKS
L.A. DOWNTOWN  PTCLDY    71  64  78 CALM      29.87R
L.A. AIRPORT   PTCLDY    70  65  84 W6        29.88R
LONG BEACH     CLEAR     73  64  73 SE6       29.88R

CITY           SKY/WX    TMP DP  RH WIND       PRES   REMARKS
AVALON           N/A     70 N/A N/A SE2         N/A
FULLERTON      CLEAR     71  64  78 S6        29.87R
*GETTY CENTER    N/A     64  63  94 S1          N/A
HAWTHORNE      CLOUDY    73  65  75 VRB6      29.88R
*LOS ALAMITOS  FAIR      70  64  83 S7        29.88R
*REDONDO BEACH   N/A     71  65  81 CALM      29.89R
SANTA ANA      PTCLDY    70  63  78 S7        29.88R
STA MONICA APT PTCLDY    71  64  78 SW6       29.88R
*UCLA            N/A     70  63  78 SE2       29.86R

$$

CAZ547-548-048-010500-
LA COUNTY VALLEYS AND INLAND EMPIRE


CITY           SKY/WX    TMP DP  RH WIND       PRES   REMARKS
BURBANK        CLEAR     73  63  70 S6        29.88R
VAN NUYS       CLEAR     73  59  61 SE8       29.88R

CITY           SKY/WX    TMP DP  RH WIND       PRES   REMARKS
CORONA AIRPORT CLEAR     69  62  78 W8        29.89R
*CHATSWORTH      N/A     73  60  62 NE6       29.87R
CHINO          CLEAR     72  62  71 SW9       29.90R
MARCH AFB      CLEAR     72  59  64 NW3       29.91R
*NORTHRIDGE      N/A     73  57  56 E3G9        N/A
ONTARIO        CLEAR     73  59  61 W7        29.89R
*PASADENA        N/A     72  64  78 N1          N/A
POMONA         CLEAR     70  59  68 CALM      29.92R
RIVERSIDE      CLEAR     73  61  65 W5        29.89R
SAN BERNARDINO CLEAR     73  55  53 SW9       29.89R
*SAN GABRIEL     N/A     73  63  72 S8        29.94R
*WHITEMAN AP   NOT AVBL
*WOODLAND HILL   N/A     72  59  64 S3          N/A

$$

CAZ054-055-010500-
LA AND SAN BERNARDINO COUNTY MOUNTAINS


CITY           SKY/WX    TMP DP  RH WIND       PRES   REMARKS
*BIG BEAR AIRP CLEAR     57  41  54 CALM      30.20R
SANDBERG       CLEAR     66  52  60 SW8       30.06R

$$

CAZ028-029-059-060-099-010500-
ANTELOPE VALLEY AND SURROUNDING AREAS


CITY           SKY/WX    TMP DP  RH WIND       PRES   REMARKS
LANCASTER      CLEAR     75  55  49 W22       29.90R
PALMDALE       CLEAR     76  42  29 NW5       29.91R

CITY           SKY/WX    TMP DP  RH WIND       PRES   REMARKS
29 PALMS       CLEAR     88  38  17 SW10      29.89R
BARSTOW/DAGGET CLEAR     89  35  14 W20       29.83R
BISHOP         CLEAR     81  30  15 SE16      29.90R
CHINA LAKE     CLEAR     84  39  20 S9        29.83R
EDWARDS AFB    CLEAR     79  48  33 W17       29.86R
MOJAVE         CLEAR     77  43  29 W16       29.89R
NEEDLES        CLEAR     99  46  16 SW7       29.73R HX  95
VICTORVILLE    CLEAR     77  46  33 SW12      29.93R

$$

CAZ039-040-010500-
VENTURA AND SANTA BARBARA COUNTY COAST


CITY           SKY/WX    TMP DP  RH WIND       PRES   REMARKS
CAMARILLO      CLEAR     69  63  81 S3        29.87R
NWS OXNARD       N/A     67  63  85 CALM      29.86R
OXNARD AIRPORT CLOUDY    68  64  87 W6        29.87R
*POINT MUGU    PTCLDY    68  62  81 VRB7      29.87R
SBA APT/GOLETA CLEAR     71  64  78 SE5       29.84R
*SANTA BARBARA   N/A     74  62  66 CALM      29.92R
*VENTURA         N/A     69  64  82 CALM      29.47S

$$

CAZ044-045-010500-
VENTURA COUNTY VALLEYS


CITY           SKY/WX    TMP DP  RH WIND       PRES   REMARKS
*SIMI VALLEY     N/A     68  62  81 CALM      29.84R
*OJAI            N/A     67  60  77 CALM      29.81R
*FILLMORE        N/A     69  61  75 CALM      29.78R

$$

CAZ053-010500-
VENTURA COUNTY MOUNTAINS


CITY           SKY/WX    TMP DP  RH WIND       PRES   REMARKS
*LOCKWOOD VLY    N/A     59  37  44 MISG        N/A
*ROSE VALLEY     N/A     61  52  72 MISG        N/A

$$

CAZ034-035-036-010500-
CENTRAL COAST AND SANTA YNEZ VALLEY


CITY           SKY/WX    TMP DP  RH WIND       PRES   REMARKS
SAN LUIS OBISP CLEAR     62  57  83 NW10      29.90R
SANTA MARIA    CLOUDY    61  58  90 NW10      29.92R

CITY           SKY/WX    TMP DP  RH WIND       PRES   REMARKS
*CAL POLY SLO    N/A     61  59  94 W5G13       N/A
*LOMPOC        CLOUDY    64  55  72 NW7       29.92R
*PISMO BEACH     N/A     64  58  82 E2        29.90R
*SANTA YNEZ    FAIR      61  55  82 W6        29.92R

$$

CAZ037-038-051-010500-
SAN LUIS OBISPO COUNTY INTERIOR AND CUYAMA VALLEY


CITY           SKY/WX    TMP DP  RH WIND       PRES   REMARKS
*CUYAMA          N/A     70  50  48 W7        29.82R
PASO ROBLES    CLEAR     71  53  52 W10       29.88R

$$

CAZ032-033-061-010500-
SOUTHERN DESERTS


CITY           SKY/WX    TMP DP  RH WIND       PRES   REMARKS
BLYTHE         CLEAR     99  40  13 SW12      29.71R HX  94
IMPERIAL       CLEAR     92  42  17 W10       29.69R
PALM SPRINGS   CLEAR     93  49  22 NW22G31   29.75R HX  90
THERMAL        PTCLDY    93  46  19 N13       29.68R

$$

ELSEWHERE ACROSS THE WESTERN UNITED STATES AND MEXICO


CITY           SKY/WX    TMP DP  RH WIND       PRES   REMARKS
DEATH VALLEY,    N/A    104  28   7 S3          N/A  HX  96
DENVER, CO     MOCLDY    60  54  80 S8        30.17R
GRAND CANYON,  MOCLDY    64  50  60 SE7         N/A
HONOLULU, HI   MOSUNNY   84  73  70 NE9       29.84R HX  91
KAHULUI, MAUI  MOCLDY    82  75  78 N13       29.84S
LAKE TAHOE, CA CLEAR     63  32  31 SE7       30.13R
LAS VEGAS, NV  CLEAR     94  34  12 SW8       29.78R
MAMMOTH LAKES, FAIR      63  27  25 CALM      30.16R
MEXICO CITY, M MOCLDY    63  54  72 NW6       30.38R
PHOENIX, AZ    MOCLDY    82  70  65 E13       29.82F
PORTLAND, OR   CLOUDY    68  53  58 CALM      29.96R
RENO, NV       CLEAR     78  26  14 NW10      29.98R
SALT LAKE CITY PTCLDY    74  42  31 S5        29.96R
SAN DIEGO, CA  CLOUDY    71  61  70 S9        29.91R
SAN FRANCISCO, PTCLDY    63  56  78 W9        29.89R
SAN JOSE, CA   CLEAR     65  57  75 NW10      29.88R
SEATTLE, WA    MOCLDY    62  55  77 S13       29.92S
TIJUANA, MEX   PTCLDY    68  59  73 S5        29.93R

$$

STATION/POSITION TIME  TEMP    WIND        PRES    VSBY  WAVE
                       AIR SEA DIR/SP/G                  HT/PER
                 (UTC) (F)     (DEG/KT/KT) (MB)    (MI)  (FT/S)
POINT ARGUELLO B NOT AVBL
WEST SANTA BARBA 0350   63 67  320/ 21/ 27 1010.8R         8/ 8
POINT CONCEPTION NOT AVBL
EAST SANTA BARBA 0300   69 70  270/ 14/ 17 1010.5S
SANTA MONICA BAY 0350   69 72  290/  4/  4 1011.4R         3/15


USA.gov is the U.S. government's official web portal to all federal, state and local government web resources and services.